{"data":{"norad_id":55475,"intl_designator":"2023-015AC","name":"STARLINK-5650","alt_names":[],"object_type":"PAYLOAD","status":"ACTIVE","operator":null,"country":"US","launch_date":"2023-02-02","launch_site_code":"AFETR","launch_vehicle":null,"mission":null,"orbit_class":"UNKNOWN","rcs_meters":null,"size_class":null,"mass_kg":null,"dimensions":null,"purposes":["comms"],"wikipedia_slug":null,"has_3d_model":false,"image_url":null,"decayed_at":null,"tle_current":{"epoch":"2026-09-20T13:33:41.778432Z","epoch_age_seconds":94519,"freshness":"FRESH","line1":"1 55475U 23015AC  26263.56506688 -.00001256  00000+0 -36105-4 0  9994","line2":"2 55475  43.0042 308.3392 0001222 300.8574  59.2158 15.27581477200529","mean_motion":15.27581477,"eccentricity":0.0001222,"inclination_deg":43.0042,"raan_deg":308.3392,"arg_perigee_deg":300.8574,"mean_anomaly_deg":59.2158,"bstar":-3.6105e-5,"rev_number":20052,"period_min":94.266657568276,"perigee_km":482.20623697338,"apogee_km":483.88310977436,"semimajor_km":6861.1816733739,"source":"CELESTRAK","updated_at":"2026-09-21T09:00:33.233062Z"}}}